AirNav   Air Wisconsin pilot careers
 
 1444 users online  

Y96 Leo E Goetz County Airport
Onaway, Michigan, USA

GOING TO ONAWAY?


FAA INFORMATION EFFECTIVE 03 JANUARY 2019

Location

FAA Identifier: Y96
Lat/Long: 45-22-15.0430N / 084-13-30.0520W
45-22.250717N / 084-13.500867W
45.3708453 / -84.2250144
(estimated)
Elevation: 830 ft. / 253 m (estimated)
Variation: 06W (1985)
From city: 1 mile N of ONAWAY, MI
Time zone: UTC -5 (UTC -4 during Daylight Saving Time)
Zip code: 49765

Airport Operations

Airport use: Open to the public
Activation date: 04/1940
Control tower: no
ARTCC: MINNEAPOLIS CENTER
FSS: LANSING FLIGHT SERVICE STATION
NOTAMs facility: LAN (NOTAM-D service available)
Attendance: UNATNDD
Wind indicator: yes
Segmented circle: yes

Airport Communications

CTAF: 122.9
WX AWOS-3 at PZQ (18 nm E): 118.125 (989-734-7419)

Nearby radio navigation aids

VOR radial/distance  VOR name  Freq  Var
PLNr136/24.2PELLSTON VORTAC111.8006W
GLRr049/29.5GAYLORD VOR/DME109.2006W
APNr308/33.1ALPENA VORTAC108.8007W

Airport Services

Parking: tiedowns
Airframe service: NONE
Powerplant service: NONE
Bottled oxygen: NONE
Bulk oxygen: NONE

Runway Information

Runway 15/33

Dimensions: 2600 x 60 ft. / 792 x 18 m
Surface: asphalt/L
Operational restrictions: RY 15/33 CLSD NOV-APR & WHEN SNOW COVERED. NO SNOW REMOVAL.
RUNWAY 15  RUNWAY 33
Latitude: 45-22.133333N45-21.762833N
Longitude: 084-13.566667W084-13.263167W
Elevation: 830.0 ft.830.0 ft.
Traffic pattern: leftleft
Markings: basic, in fair conditionbasic, in fair condition
Obstructions: 16 ft. road, 525 ft. from runway, 177 ft. right of centerline, 20:1 slope to clear40 ft. trees, 201 ft. from runway, 120 ft. left of centerline
25 FT TREES, 0-400 FT DSTC, 120 FT L.

Runway 3/21

Dimensions: 1400 x 100 ft. / 427 x 30 m
Surface: turf, in fair condition
EXTENSIVE PAVEMENT CRACKING.
Runway edge markings: RY 3/21 MARKED WITH 3 FT YELLOW CONES.
Operational restrictions: RY 03/21, CLSD NOV-APR & WHEN SNOW COVERED. NO SNOW REMOVAL.
RUNWAY 3  RUNWAY 21
Traffic pattern: leftleft
Obstructions: 41 ft. trees, 396 ft. from runway, 110 ft. right of centerline, 9:1 slope to clear36 ft. trees, 120 ft. from runway, 100 ft. right of centerline, 3:1 slope to clear

Airport Ownership and Management from official FAA records

Ownership: Publicly-owned
Owner: PRESQUE ISLE COUNTY
151 E. HURON RD, P.O. BOX 110
ROGERS CITY, MI 49779
Phone 989-734-4309
Manager: MICHAEL T JERMEAY
151 E. HURON RD, P.O. BOX 110
ROGERS CITY, MI 49779
Phone 989-464-6887

Airport Operational Statistics

Aircraft operations: 200/year *
50% transient general aviation
50% local general aviation
* for 12-month period ending 31 December 2014

Additional Remarks

RANDOM 10-20 FT. BRUSH & TREES IN PRIM SFC.
RY 15, 11 FT POWERLINE 750 FT FM THLD 125 FT R OF CNTRLN. RY 33 14 FT POWERLINE, 676 FT FM THLD, APCH RATIO 34:1.
ARPT TO BE CLSD (ABANDONED) MID 2019 - CHECK NOTAMS.

Instrument Procedures

There are no published instrument procedures at Y96.

Some nearby airports with instrument procedures:

KPZQ - Presque Isle County Airport (18 nm E)
KSLH - Cheboygan County Airport (21 nm NW)
6Y1 - Bois Blanc Island Airport (26 nm NW)
KPLN - Pellston Regional Airport of Emmet County (27 nm NW)
KMGN - Harbor Springs Airport (29 nm W)
 
Loc | Ops | Rwys | IFR | FBO | Links
Com | Nav | Svcs | Stats | Notes
Area around Y96 (Leo E Goetz County Airport)
 
Road maps at: MapQuest Bing Google
 
Aerial photo
No photo
 
Sectional chart

 
Airport distance calculator
Flying to Leo E Goetz County Airport? Find the distance to fly.

From to Y96

Sunrise and sunset
Times for 23-Jan-2019
 Local
(UTC-5)
 Zulu
(UTC)
Morning civil twilight07:3612:36
Sunrise08:0813:08
Sunset17:3022:30
Evening civil twilight18:0223:02

Current date and time
Zulu (UTC)  23-Jan-2019 21:23:45
Local (UTC-5)  23-Jan-2019 16:23:45
 
METAR
KPZQ 
18nm E 
232036Z AUTO 00000KT 4SM -SN OVC005 M01/M02 A2954 RMK AO2 T10131021
KSLH 
21nm NW 
232036Z AUTO 34006KT 2 1/2SM -SN OVC010 M04/M05 A2957 RMK AO2 T10411051
KPLN 
27nm NW 
232022Z AUTO 35006KT 2SM -SN BR FEW027 SCT031 OVC038 M04/M06 A2958 RMK AO2 P0000 T10391061
KGLR 
29nm SW 
232043Z AUTO VRB04KT 2SM -FZRA BR OVC008 M05/M06 A2953 RMK AO2 UPB34E43FZRAB43 P0000 I1001 T10501056
KMGN 
29nm W 
232036Z AUTO 32004KT 3SM -SN BKN023 OVC036 M04/M05 A2958 RMK AO2 T10411055
KAPN 
33nm SE 
232028Z AUTO 33004KT 7SM BKN007 BKN013 OVC046 M01/M03 A2951 RMK AO2 SNE08 P0000 T10111033
KMCD 
33nm NW 
232035Z AUTO 36006KT 1 1/2SM -SN BKN004 BKN015 OVC023 M04/M04 A2957 RMK AO2 T10451045
TAF
KPLN 
27nm NW 
231742Z 2318/2418 01005KT 3/4SM -SN SCT009 OVC015 TEMPO 2318/2321 1/2SM SN OVC010 FM240000 31008KT P6SM VCSH OVC008 FM240500 29007KT P6SM VCSH OVC030 FM241200 28005KT 6SM -SHSN OVC035 FM241600 26007KT 3SM -SHSN OVC020
KAPN 
33nm SE 
231742Z 2318/2418 VRB04KT 1SM -SN OVC020 TEMPO 2318/2320 3/4SM -SN OVC015 FM240000 32010KT P6SM VCSH OVC015 FM240300 30008KT P6SM OVC015 FM241200 28006KT P6SM BKN030 FM241500 27006KT P6SM BKN040
NOTAMs
Click for the latest NOTAMs
NOTAMs are issued by the DoD/FAA and will open in a separate window not controlled by AirNav.

 

 
 

Would you like to see your business listed on this page?

 If your business provides an interesting product or service to pilots, flight crews, aircraft, or users of the Leo E Goetz County Airport, you should consider listing it here.  To start the listing process, click on the button below
 
Add a business
 

Other Pages about Leo E Goetz County Airport

www.presqueislecounty.org/airport.html
Page from the Michigan Airport Directory (PDF)
 
Update a link
 
Copyright © AirNav, LLC. All rights reserved. Privacy Policy  Contact